Погода в Красногвардейском

Россия / Республика Адыгея     45°08′37″N   39°35′22″E
темп.,
°C
ветер,
м/с
пор.,
м/с
влажн.,
%
обл.,
%
осадки,
мм/ч
давл.,
гПа
погр.,
м
25 февраля, чт
чт2500:00−10всв477118 0.0 1036268
03:00−10св467325 0.0 1035249
06:00−13в238829 0.0 103566
09:00−10всв238016 0.0 1035166
12:00−4юв117019 0.0 1034276
15:00−1зсз226943 0.0 1033323
18:00−3зюз2280100 0.0 103225
21:00−3з2377100 0.0 103241
26 февраля, пт
пт2600:00−3з3675100 0.0 1032116
03:00−1зюз487899 0.0 1031167
06:00+1зюз488396 0.0 1030181
09:00+2юз6118898 0.0 1029278
12:00+3юз71491100 0.2 1028438
15:00+4зюз61489100 0.3 1026473
18:00+3юз61390100 0.2 1026356
21:00+3юз61387100 0.4 1026335
27 февраля, сб
сб2700:00+3юз7148495 0.0 1024361
03:00+2юз6148680 0.0 1023346
06:00+4юз8168469 0.0 1021455
09:00+4юз8168485 0.0 1020519
12:00+5юз81680100 0.0 1018638
15:00+7юз8147794 0.0 1016775
18:00+5юз7158195 0.0 1015430
21:00+4зюз6148497 0.0 1015499
28 февраля, вс
вс2800:00+4юз51394100 2.5 1014564
03:00+4зюз5997100 6.9 1015397
06:00+3зсз2499100 2.7 1015189
09:00+3сз3692100 3.4 1016438
12:00+6сз466797 0.1 10171227
15:00+6сз677091 0.2 10171055
18:00+4сз378070 0.1 1019344
21:00+2зсз359172 0.1 1021144
1 марта, пн
пн100:00+1зсз249474 0.0 102390
03:00+1з229087 0.0 102437
06:000ссз228993 0.0 102531
09:00+2ссв237985 0.0 1026268
12:00+4с336189 0.0 10271030
15:00+4с336494 0.0 1027963
18:00+2ссв3472100 0.0 1028346
21:00+1ссв347595 0.0 1030143